#timestamp,LO_Frequency,Hit,StdDev 
1601178495.5,286046999.8,P
1601178515.4,286047003.6,P
1601178535.2,286047005.2,N
1601178555.0,286047004.6,N
1601178555.9,286047004.6,N
1601178575.8,286047006.4,N
1601178595.6,286047006.7,N
1601178615.4,286047004.8,N
1601178665.3,286047004.0,E
1601178675.2,286047002.4,N
1601178695.1,286046998.5,P
1601178696.0,286046998.5,N
1601178715.8,286046998.6,N
1601178735.6,286046997.5,N
1601178755.5,286046995.0,N
1601178775.3,286046997.1,N
1601178795.2,286046997.5,N
1601178815.9,286046998.3,N
1601178835.7,286046998.2,N
1601178855.6,286047001.1,N
1601178875.4,286047000.2,N
1601178895.2,286047001.5,N
1601178915.1,286047001.8,N
1601178916.0,286047001.8,N
1601178935.8,286047005.9,N
1601178955.7,286047003.6,N
1601178975.5,286047001.4,N
1601178995.3,286047001.6,N
1601179015.2,286047002.0,N
1601179035.0,286047000.6,N
1601179035.9,286047000.6,N
1601179055.7,286046999.9,N
1601179075.6,286047001.2,N
1601179095.4,286047001.1,N
1601179115.3,286047000.5,N
1601179135.1,286046998.4,N
1601179136.0,286046998.4,N
1601179155.8,286046999.5,N
1601179175.7,286046998.4,N
1601179195.5,286046998.2,N
